GFSFLT2_250_spd_000.txt.gz
Wind_Speed
64 61 58 51 47 46 43 42 41 36 36 31 32 34 34 33 34 32 33 33 34 36 37 36 38 40 40 40 41 40 40 43
74 70 63 56 55 54 46 43 41 40 38 41 35 39 37 39 37 37 39 39 40 40 41 42 43 44 45 44 45 46 46 48
82 73 68 64 61 57 52 49 43 42 39 42 44 43 40 42 42 41 42 43 44 44 44 45 46 47 48 48 50 51 51 53
81 78 77 74 67 64 62 53 49 46 43 48 46 47 46 44 44 45 46 47 46 49 49 49 50 51 50 51 52 53 54 54
87 85 77 71 66 65 65 61 54 50 46 50 48 46 46 47 49 47 46 49 51 52 51 53 55 54 54 54 54 54 55 55
84 75 74 72 69 67 68 65 57 53 54 56 55 54 50 51 50 48 50 53 53 54 55 57 58 58 57 59 58 57 57 57
82 84 82 77 75 74 72 67 68 61 60 59 58 56 53 52 54 51 54 57 58 58 59 60 62 63 63 64 63 63 62 61
84 86 86 83 78 78 76 74 70 66 63 63 61 58 57 57 57 56 59 63 64 62 63 65 64 65 66 68 66 66 64 66
87 86 86 89 81 79 77 77 73 68 66 68 65 62 63 64 62 63 66 66 66 66 69 69 68 70 69 69 67 66 63 66
88 91 95 83 83 83 81 80 75 71 70 70 67 68 70 68 68 71 72 71 71 71 71 72 72 70 67 64 62 61 61 62
89 91 87 86 85 85 83 80 76 73 72 69 69 75 71 69 72 76 74 73 70 72 70 67 64 65 66 66 67 66 66 67
89 93 92 85 82 83 82 80 74 71 71 68 71 75 73 74 75 76 74 70 69 68 63 62 66 69 69 71 70 68 67 66
91 91 89 85 85 85 84 77 74 69 70 72 74 75 76 76 76 72 70 65 66 67 70 69 72 70 70 72 72 70 69 67
90 91 89 86 84 84 80 79 73 70 73 72 74 74 74 76 73 72 70 71 70 73 73 75 76 75 76 77 77 73 70 63
86 87 86 85 83 81 79 78 74 75 75 72 75 73 74 76 78 76 78 75 74 75 79 80 82 82 79 78 75 72 69 64
80 86 83 82 82 80 80 79 77 75 76 77 78 80 81 82 80 79 79 78 79 79 80 81 80 81 78 75 74 67 68 51
66 73 78 81 79 78 79 81 81 80 78 77 78 80 79 81 84 85 86 83 82 80 78 80 80 78 76 73 68 68 67 58
67 64 65 63 80 81 79 80 82 80 78 80 80 80 82 85 85 84 81 78 79 77 77 79 72 72 74 71 71 68 68 56
80 67 67 54 55 66 74 79 78 76 78 80 81 80 81 84 81 81 79 77 76 75 74 71 73 73 70 68 67 72 73 79

GFSFLT2_250_spd_003.txt.gz
Wind_Speed
71 68 64 57 53 49 46 40 39 39 40 32 33 33 32 31 30 29 29 29 30 30 32 34 36 36 36 36 38 37 39 40
78 77 71 65 61 59 50 44 42 44 44 42 38 39 37 35 36 34 34 34 35 34 36 38 40 40 39 41 42 41 41 42
87 82 75 72 69 63 55 49 46 46 44 50 46 46 43 43 41 40 40 40 40 39 41 42 42 44 44 43 43 43 43 44
87 83 84 80 76 70 64 54 52 53 52 55 55 49 47 47 45 45 45 44 42 43 45 45 45 46 46 46 46 44 44 47
96 93 88 83 76 71 68 65 58 55 53 58 58 55 51 51 48 49 48 47 46 49 48 48 48 47 48 49 49 49 50 52
97 89 85 85 80 75 72 69 63 55 55 62 60 58 55 54 53 54 54 53 52 51 52 51 52 50 50 53 54 54 54 55
97 94 93 89 86 81 76 68 64 58 61 64 63 61 60 58 55 56 55 57 56 55 54 54 54 55 56 59 59 59 58 57
100 98 98 94 90 87 81 75 71 68 64 65 66 63 61 58 56 58 59 61 61 57 56 56 57 60 62 63 63 64 62 59
101 102 104 103 96 92 86 79 75 70 66 70 68 65 63 62 59 60 62 64 63 61 60 60 62 67 69 69 67 65 61 58
101 106 111 94 92 90 87 83 82 76 73 76 73 69 67 63 62 64 66 69 68 67 64 64 68 72 72 71 69 65 60 57
96 108 103 98 96 94 91 87 83 80 78 78 76 73 70 66 69 72 73 76 74 72 68 70 71 73 73 71 67 60 57 58
83 100 100 96 95 95 93 91 86 83 83 80 78 76 74 73 74 75 78 78 75 72 71 71 71 72 72 69 64 61 62 64
76 88 93 95 94 94 96 87 84 84 80 79 78 78 78 78 77 76 77 77 77 75 72 72 70 68 67 66 65 65 67 68
70 80 86 92 94 94 91 89 88 83 79 79 78 80 81 79 78 78 77 77 77 76 72 70 67 66 65 66 68 70 73 75
66 77 82 87 90 91 89 90 88 82 82 81 78 79 78 77 75 77 75 75 76 75 73 72 69 68 69 70 72 74 75 76
46 71 64 80 84 89 88 87 84 82 81 80 78 78 77 77 74 74 78 77 76 77 76 74 72 71 73 75 74 76 75 71
57 45 50 51 69 82 85 85 83 81 81 80 80 78 79 78 76 76 77 76 75 78 79 75 74 72 73 76 76 72 70 65
60 62 58 52 48 67 77 83 81 80 80 78 79 78 78 77 77 78 79 77 78 80 78 75 74 75 76 75 73 70 69 71
66 49 46 51 45 48 57 75 81 81 79 83 80 80 79 78 78 77 79 82 81 77 77 77 76 76 75 72 68 72 73 73

GFSFLT2_250_spd_006.txt.gz
Wind_Speed
78 74 70 65 62 52 51 47 44 44 46 44 35 34 37 37 33 32 30 29 29 28 27 29 30 32 33 34 35 34 35 35
87 83 78 72 66 67 56 51 45 47 46 47 42 41 41 38 37 36 34 33 33 32 31 32 33 35 36 38 39 38 37 36
94 88 82 78 76 70 62 58 51 49 49 54 45 46 46 44 41 40 39 38 37 35 35 38 39 40 41 41 41 40 39 38
94 93 92 89 85 80 73 59 54 51 53 61 51 48 50 49 47 46 45 44 43 41 40 44 44 44 43 41 42 43 43 40
99 99 97 95 86 82 76 68 61 57 57 60 64 56 54 54 50 48 46 47 47 44 44 46 46 44 43 44 46 47 46 44
94 99 100 97 93 88 85 77 67 59 63 64 66 66 63 60 55 52 50 51 50 48 48 47 46 46 46 47 50 49 50 49
90 97 103 101 97 95 93 82 78 67 65 66 67 76 71 66 58 56 54 55 55 55 52 49 48 49 49 53 53 52 54 55
86 93 105 106 103 98 96 92 84 79 70 71 73 78 75 67 63 61 61 62 61 59 55 54 52 52 53 57 56 57 59 61
78 91 99 108 105 102 96 96 92 85 72 78 79 81 77 73 67 66 65 66 64 62 58 57 54 55 61 62 61 63 65 66
76 84 95 95 103 104 102 98 94 91 86 80 82 83 81 74 70 68 68 68 67 65 61 59 57 61 64 67 66 69 70 68
67 80 85 86 97 106 105 101 96 91 89 84 82 83 85 76 74 72 71 72 71 68 64 62 61 66 69 71 71 72 71 69
65 71 75 87 87 94 104 101 95 93 87 86 85 90 88 81 78 77 75 75 74 71 69 66 69 72 74 72 73 73 74 72
63 67 72 78 83 88 98 94 98 95 93 90 89 96 90 85 83 80 78 78 78 76 75 74 75 76 74 74 74 72 72 70
61 62 66 67 72 82 86 90 97 96 95 94 90 92 89 87 85 83 82 82 81 81 80 79 77 77 79 76 73 71 70 71
59 61 54 55 64 67 73 82 92 96 95 95 93 91 87 87 87 85 86 85 83 83 82 79 81 79 80 75 72 69 69 71
53 53 46 51 55 61 69 75 83 91 93 94 92 90 88 85 85 84 82 83 83 83 80 80 80 77 78 76 73 71 71 72
47 46 46 48 53 56 60 67 74 83 90 90 87 86 85 85 85 82 80 79 81 79 78 79 77 77 79 75 74 73 73 74
43 42 34 38 47 57 54 59 71 76 82 84 82 83 82 82 84 82 79 77 78 79 76 77 78 79 78 75 73 73 74 75
45 39 34 33 30 39 43 49 48 65 75 77 80 80 80 79 79 78 79 76 82 82 80 81 81 80 78 76 75 75 73 72

GFSFLT2_250_spd_009.txt.gz
Wind_Speed
80 78 77 69 71 57 60 54 49 45 48 51 44 36 34 36 34 32 31 28 29 29 28 27 28 29 30 30 30 30 32 33
85 87 81 78 71 73 62 57 52 54 53 50 50 42 40 42 39 38 37 35 34 34 33 33 34 34 35 34 34 34 35 34
84 84 84 84 78 78 72 69 60 57 53 54 54 46 44 46 46 43 42 41 40 40 38 38 38 38 37 37 37 37 37 35
75 86 92 90 87 87 84 72 63 63 57 62 62 53 49 52 51 50 48 46 44 44 42 41 43 42 41 40 39 40 40 40
75 79 90 91 89 87 84 79 73 69 59 65 66 63 52 50 54 53 48 48 47 46 46 45 46 44 42 43 43 43 44 45
69 74 83 97 96 95 94 90 81 72 72 73 69 72 61 58 59 60 54 52 50 48 47 47 47 47 44 45 47 49 50 49
63 69 77 84 98 99 100 93 90 80 81 76 73 69 73 65 63 64 61 56 53 53 51 51 47 51 48 50 53 54 54 52
62 61 74 80 88 101 101 99 95 91 86 81 79 77 74 75 69 68 65 61 59 57 55 54 52 54 54 56 59 57 55 54
61 61 70 80 76 87 99 102 99 97 85 89 87 81 74 76 80 76 71 66 64 63 60 60 59 58 57 61 62 60 57 60
64 69 66 56 74 83 95 103 105 101 98 95 88 83 79 77 87 82 77 71 64 66 65 64 63 61 60 65 64 64 64 66
71 65 57 59 75 78 84 93 100 103 99 97 93 87 85 81 90 86 83 76 72 73 72 70 68 65 64 68 68 68 71 71
70 63 58 57 67 70 78 81 94 103 104 102 97 95 84 86 86 93 95 81 76 80 77 75 71 69 68 71 72 74 75 75
66 61 56 66 57 65 73 75 87 97 102 104 103 96 95 89 92 96 98 86 84 85 82 80 77 74 74 75 76 78 78 77
64 65 63 54 57 63 69 68 74 90 99 105 104 104 96 91 96 100 98 91 90 87 86 84 82 79 78 79 80 81 81 79
66 65 58 51 59 66 68 67 66 76 93 100 106 102 99 100 99 99 97 93 90 86 89 86 84 82 81 83 84 83 82 82
70 58 52 56 59 61 62 60 60 64 81 93 99 102 102 102 100 98 95 91 87 86 87 87 84 85 85 85 84 82 83 82
61 56 56 54 56 54 54 53 53 54 67 80 86 92 98 98 97 95 92 89 88 86 86 83 81 81 81 81 81 81 80 78
45 62 56 49 48 48 46 40 30 38 52 58 74 82 85 93 93 92 91 89 88 87 85 82 81 81 80 78 78 78 78 79
56 60 59 48 44 44 42 40 36 35 41 49 53 55 71 78 85 87 86 85 83 82 82 81 80 80 81 81 80 78 78 77

GFSFLT2_250_spd_012.txt.gz
Wind_Speed
50 68 77 69 72 62 62 58 54 46 47 45 46 40 40 36 34 34 33 31 33 32 28 27 26 25 26 26 27 28 28 27
42 51 67 78 74 75 69 64 57 56 54 48 50 50 45 42 37 42 39 36 35 35 32 31 29 29 29 30 31 31 31 32
48 40 51 74 81 77 77 73 68 61 54 54 55 55 51 48 45 47 47 39 40 39 37 36 35 34 34 34 34 33 34 35
54 46 50 58 72 83 83 77 73 68 59 61 61 63 58 53 51 52 55 47 45 43 41 38 40 39 37 37 38 37 37 38
61 48 44 45 55 75 87 85 81 79 63 66 72 67 65 61 57 55 58 51 47 47 42 43 44 42 42 42 41 40 40 41
64 61 67 58 59 65 80 89 83 83 72 74 78 72 74 69 62 54 57 57 49 51 46 49 49 47 46 44 43 44 45 46
66 69 72 59 54 62 69 81 91 82 84 80 83 77 77 75 67 61 62 65 56 55 53 51 52 52 49 49 47 49 51 52
79 74 72 65 63 56 59 67 82 87 88 87 84 85 82 83 77 70 65 66 62 61 56 58 56 56 55 53 54 54 56 57
86 76 75 73 41 56 60 66 74 85 87 91 94 93 91 87 83 74 70 71 65 64 64 63 61 62 61 59 59 60 61 61
85 81 78 45 65 61 58 65 71 75 81 91 96 96 93 90 86 82 74 77 70 69 68 66 67 64 64 63 64 66 66 66
79 74 64 64 61 64 63 56 63 72 77 85 95 98 100 96 93 88 85 75 77 81 74 72 68 71 69 67 67 70 72 69
72 69 61 54 65 64 64 55 67 71 73 81 87 100 97 97 96 94 90 87 81 93 84 69 76 76 73 72 71 76 76 75
70 68 64 67 68 67 67 53 56 60 68 74 82 86 90 99 102 100 96 92 90 98 87 78 79 79 80 78 76 78 79 79
74 68 67 67 60 48 58 55 54 59 57 62 72 80 88 99 102 102 100 94 92 102 92 85 84 82 82 81 79 80 82 83
71 63 65 66 68 69 68 58 54 58 66 72 60 66 79 88 97 99 100 100 99 97 95 89 86 85 85 83 83 82 84 86
71 67 70 67 68 64 62 57 57 55 59 61 60 58 65 73 84 94 99 102 105 98 95 91 88 89 87 87 87 86 87 89
63 65 63 62 63 59 57 54 53 47 47 51 51 52 57 64 74 85 92 97 99 98 97 94 91 90 90 88 86 86 88 88
61 60 52 52 55 52 57 55 47 42 44 39 30 21 24 34 46 66 82 89 92 96 98 95 92 90 87 86 84 83 83 82
61 55 44 43 44 52 45 38 39 40 37 29 27 22 11 28 41 43 51 74 85 91 94 94 92 89 87 86 85 84 83 81

GFSFLT2_250_spd_015.txt.gz
Wind_Speed
29 28 39 54 58 62 65 61 56 47 44 45 43 40 38 36 35 34 38 35 33 35 36 32 28 26 25 22 22 22 25 26
41 31 25 30 46 62 62 63 58 54 52 46 48 44 44 43 40 42 39 36 37 34 36 34 31 28 28 27 26 25 29 30
50 35 37 34 31 40 67 68 66 62 52 55 55 52 50 50 49 46 46 42 41 39 37 33 31 30 31 31 31 31 33 33
53 49 41 36 36 35 51 58 71 71 57 64 63 66 59 58 56 55 50 46 47 42 41 37 37 36 35 35 36 37 37 37
61 50 49 50 47 48 41 47 64 73 60 70 71 69 63 60 61 60 57 54 47 46 44 43 43 41 39 39 40 40 42 42
67 63 67 57 57 51 49 43 48 57 65 73 78 76 71 69 69 67 63 60 53 50 46 48 46 47 44 43 43 44 47 47
70 72 75 64 59 54 53 42 47 46 57 71 82 82 80 76 74 73 70 67 61 51 51 50 53 50 50 48 47 49 51 52
80 77 78 74 62 59 56 51 47 45 52 57 70 88 85 84 82 78 75 71 68 61 57 55 55 55 55 53 51 52 55 57
85 83 86 86 62 68 66 56 54 40 45 60 63 75 85 87 87 83 80 81 73 68 62 61 60 61 61 60 57 56 60 62
94 90 93 71 74 73 73 61 54 49 52 57 58 63 74 87 92 91 79 84 80 76 68 62 64 64 65 65 64 63 64 68
101 98 86 79 77 81 80 62 64 54 49 52 58 60 64 71 86 90 87 90 84 87 76 73 72 67 65 68 69 69 69 71
106 100 89 77 83 85 81 70 65 52 46 44 48 54 53 65 72 87 90 92 88 96 82 82 76 71 72 73 72 73 74 76
108 98 91 85 87 87 86 73 65 54 49 49 52 50 54 61 68 71 83 92 93 95 95 89 82 75 79 77 76 79 79 77
107 99 95 88 89 86 78 75 61 56 44 41 41 45 52 60 64 70 75 82 92 96 98 94 88 85 83 81 82 84 82 81
104 106 99 90 84 78 71 70 59 44 43 37 42 45 49 56 60 62 72 73 79 87 95 94 91 90 92 89 87 87 88 87
93 96 94 88 80 78 68 49 41 42 53 46 48 46 46 51 59 58 60 64 68 79 84 85 90 92 96 97 93 90 89 90
86 82 76 72 69 37 39 37 36 38 43 50 50 47 46 47 49 41 42 46 49 57 69 76 79 84 91 95 94 93 93 90
85 76 65 60 62 34 37 43 56 53 55 39 34 36 37 23 11 12 20 37 33 36 47 58 66 74 77 85 92 93 89 89
70 57 56 60 52 54 61 53 59 55 36 34 33 26 15 27 23 19 18 39 78 47 38 47 50 59 63 71 77 86 89 86

GFSFLT2_250_spd_021.txt.gz
Wind_Speed
38 41 32 35 25 34 28 41 47 48 44 45 40 37 35 34 33 34 28 32 33 30 31 28 26 22 21 22 21 20 19 21
41 36 28 32 38 29 25 25 38 51 49 51 47 46 45 40 35 36 33 35 38 38 37 32 29 27 28 29 29 28 27 27
49 36 37 36 35 32 29 24 23 33 48 60 56 54 49 45 42 40 40 41 40 41 42 38 35 35 36 36 36 36 32 30
52 48 46 39 33 30 22 28 25 21 37 59 65 59 54 49 50 50 47 46 43 43 43 40 46 40 41 43 39 39 38 32
60 59 50 42 39 33 31 32 23 26 36 36 52 62 56 55 54 54 54 51 46 43 43 44 44 43 43 41 37 39 40 34
62 64 59 50 46 43 36 27 28 28 35 38 31 39 59 62 62 61 58 56 55 51 51 49 48 47 46 46 43 40 42 41
67 65 62 56 51 46 35 32 28 39 38 44 42 33 31 43 62 66 65 62 60 59 60 57 54 54 53 52 51 45 46 48
72 68 69 64 56 48 42 41 38 39 30 42 48 42 33 36 40 51 64 69 67 65 64 62 63 64 63 57 56 54 51 52
79 80 78 71 48 53 50 47 45 40 45 48 46 48 44 38 37 41 45 52 66 74 73 70 68 70 67 65 61 57 57 57
86 91 87 59 65 64 60 55 50 46 49 47 46 49 48 41 39 40 48 44 51 67 79 77 76 74 76 75 68 63 62 62
94 98 84 77 76 76 71 62 59 53 51 49 49 48 43 44 41 39 38 43 47 52 59 76 81 80 80 80 75 72 69 68
99 97 88 82 84 82 81 74 63 59 56 57 55 48 46 50 46 46 44 42 44 50 54 60 71 82 87 85 83 78 76 76
106 102 92 90 89 88 91 63 72 66 62 63 59 53 54 51 52 53 50 50 50 44 48 55 67 75 81 88 87 86 86 84
106 102 94 95 94 92 85 80 76 73 68 66 64 62 61 58 57 58 57 57 54 50 48 53 60 66 69 75 80 85 87 86
113 106 99 100 98 95 89 82 82 77 74 72 70 66 65 61 62 61 61 59 58 54 50 53 53 57 56 56 60 65 69 68
116 109 106 105 103 96 90 81 81 81 80 76 73 70 69 65 61 62 64 62 55 56 57 51 50 51 52 55 53 54 56 54
125 121 116 110 105 95 82 80 80 79 83 81 80 76 70 67 66 65 66 61 57 54 53 53 61 54 50 50 48 48 49 42
119 122 120 116 109 104 93 87 75 81 88 85 83 82 75 71 72 72 59 59 54 47 46 55 59 52 44 43 42 43 36 20
92 106 110 102 80 70 84 107 89 88 89 90 84 87 85 81 76 70 53 57 41 42 53 54 45 47 38 39 37 36 24 19

GFSFLT2_250_spd_024.txt.gz
Wind_Speed
42 43 39 31 21 22 17 24 37 42 49 43 40 34 31 30 29 28 27 25 25 27 29 29 28 22 18 17 15 15 15 18
41 37 34 29 30 18 15 13 20 38 48 51 47 43 40 36 35 34 32 30 29 31 32 31 27 24 24 21 20 21 21 22
48 37 37 34 31 27 22 21 21 24 31 43 52 51 46 42 40 37 34 33 33 32 32 33 31 31 28 28 27 27 27 29
55 52 46 40 36 26 20 23 22 21 27 26 39 53 50 47 46 43 40 38 37 35 33 33 37 38 38 37 36 35 36 37
63 59 51 44 42 36 33 25 20 23 33 27 22 32 51 51 48 47 47 45 43 41 38 39 40 42 41 42 47 45 41 41
66 64 58 49 48 43 37 28 26 23 30 33 27 22 32 51 54 57 53 49 48 46 44 46 45 45 45 46 44 42 43 45
71 69 65 55 52 51 44 38 29 34 32 40 34 25 18 23 45 56 57 55 54 53 52 53 52 52 52 51 49 45 43 45
79 73 70 63 56 56 53 47 41 38 35 44 43 29 23 26 22 28 37 50 59 60 60 60 59 60 59 58 57 54 53 51
87 81 76 69 62 58 58 53 48 40 41 48 47 38 28 27 28 27 26 31 37 51 66 67 67 66 66 68 66 61 60 58
92 87 81 72 69 65 61 58 51 47 46 46 50 46 40 30 28 29 30 32 36 38 40 50 68 75 74 71 69 67 70 63
93 89 77 76 75 73 65 59 55 51 52 55 51 48 43 42 37 35 36 35 37 40 42 47 50 53 61 72 75 75 78 73
97 91 83 79 80 78 67 62 65 57 52 54 52 46 47 50 46 40 38 37 33 39 42 42 47 52 54 58 62 68 77 81
101 97 87 82 81 80 75 59 65 61 59 57 52 49 52 50 48 47 44 42 43 42 42 44 47 51 55 60 59 62 66 72
103 97 91 87 85 85 74 72 71 68 66 63 60 59 59 57 56 54 56 54 51 48 44 43 47 52 59 62 65 63 61 61
99 87 87 87 92 86 79 77 77 77 75 71 67 65 64 63 60 62 64 59 56 54 52 49 46 45 50 57 65 64 56 58
99 90 86 90 93 91 87 83 81 81 81 77 73 70 70 69 67 66 68 66 62 60 57 57 52 47 48 55 62 64 57 56
103 96 92 90 90 91 91 90 87 87 84 82 77 75 74 74 72 70 69 69 69 64 63 61 57 56 54 51 51 50 55 59
103 103 95 94 94 93 89 86 89 83 81 85 83 81 79 80 78 74 72 71 71 74 70 66 62 59 61 58 49 51 62 63
90 96 104 101 95 96 93 91 79 72 74 77 81 86 86 82 77 73 73 75 78 77 73 70 67 68 66 65 56 59 58 53

GFSFLT2_250_spd_027.txt.gz
Wind_Speed
48 52 44 35 29 25 21 23 36 48 56 49 43 35 31 27 22 26 29 29 27 27 27 26 26 26 27 25 23 21 21 20
55 52 41 39 35 23 18 20 25 36 47 56 50 45 38 32 31 31 31 29 27 27 28 29 29 28 28 26 23 22 21 19
57 47 43 43 38 34 32 25 24 25 34 46 52 48 45 40 38 35 34 33 29 28 28 30 30 32 30 30 28 28 27 24
58 55 52 47 42 35 31 34 31 26 25 29 37 50 50 47 43 38 36 36 36 34 32 30 32 36 36 35 36 35 33 33
65 59 54 48 42 39 37 33 29 29 31 30 24 25 46 51 50 46 42 40 38 38 38 35 38 39 40 41 42 41 40 39
69 66 62 55 49 45 39 30 33 32 37 33 31 27 28 48 56 55 52 50 47 44 41 39 40 42 43 43 44 45 46 46
76 72 66 61 55 47 44 38 32 39 36 36 33 28 27 30 47 58 58 55 51 48 46 44 44 47 47 48 46 46 46 45
79 78 73 66 59 53 48 44 40 38 35 41 36 30 29 27 22 35 52 59 57 54 51 51 52 53 54 53 52 50 49 49
84 81 77 72 63 60 56 53 51 41 41 48 40 33 32 32 27 24 23 30 48 58 59 58 60 59 58 59 56 55 55 54
91 85 83 71 69 65 60 54 53 48 46 49 47 45 36 32 31 30 31 29 30 32 36 46 51 56 57 59 60 60 61 60
97 91 81 79 74 69 64 57 55 52 54 51 52 53 45 43 39 38 39 37 35 35 33 32 36 42 43 41 44 51 61 67
100 94 88 80 82 78 72 63 61 58 57 59 55 51 49 51 47 46 43 43 42 39 37 37 37 38 40 43 44 49 52 55
102 99 93 87 86 82 77 69 67 64 61 61 58 55 60 56 52 49 48 47 44 43 43 42 40 37 39 42 45 51 51 50
99 96 90 91 92 87 82 78 74 70 68 64 64 64 61 59 58 55 52 50 49 49 48 43 43 43 40 38 39 41 44 48
96 90 91 94 90 88 88 85 80 75 73 69 68 68 67 64 59 57 55 53 52 49 48 47 48 48 47 46 46 45 42 44
89 90 92 92 92 89 87 83 81 77 76 74 73 72 69 66 64 61 58 57 57 56 54 52 53 51 51 52 52 49 46 48
85 84 93 97 96 94 89 87 84 80 77 75 74 76 75 72 70 67 66 64 63 63 61 60 60 60 59 58 59 56 53 52
89 92 89 99 100 96 94 94 91 85 82 81 79 77 77 77 77 75 73 72 70 68 69 68 67 67 66 64 62 61 59 56
104 97 90 94 95 94 94 94 90 87 86 80 84 78 79 79 80 79 79 78 77 75 74 74 75 72 70 69 67 63 62 60

GFSFLT2_250_spd_030.txt.gz
Wind_Speed
56 53 46 38 28 35 27 28 37 45 52 52 44 38 34 32 26 23 20 25 31 33 36 35 35 33 30 28 27 24 21 21
62 60 47 40 41 26 20 23 29 39 49 52 51 46 39 35 32 29 25 26 34 34 34 36 35 35 33 31 31 26 24 22
65 55 50 48 41 40 34 28 32 34 39 45 47 50 44 43 40 35 30 30 36 35 33 32 32 34 34 36 35 33 30 27
65 62 57 56 54 50 41 36 37 30 29 30 40 48 51 47 45 39 35 31 35 36 32 30 36 37 38 38 39 37 34 31
73 67 60 54 54 47 47 45 35 33 31 28 27 39 50 52 51 48 43 37 35 38 37 35 34 36 37 37 38 37 36 35
73 72 67 58 55 50 50 50 44 40 40 37 30 29 42 53 55 53 51 46 42 40 42 43 42 40 38 38 38 38 39 39
81 72 67 59 56 54 51 53 50 48 46 44 39 32 35 44 53 56 55 55 52 50 48 44 43 43 43 44 43 42 43 44
82 78 74 68 62 59 57 55 52 51 49 48 43 39 38 39 38 49 59 58 57 56 52 48 47 46 44 44 44 43 44 46
86 85 80 71 63 62 62 60 55 48 50 52 45 42 38 40 39 41 45 56 60 58 57 55 54 52 50 49 44 45 47 48
91 86 82 71 72 69 69 66 60 52 49 51 47 44 36 34 39 41 41 43 49 53 56 57 56 53 53 51 50 50 50 51
92 85 83 81 76 74 73 69 63 56 54 49 49 49 41 39 38 38 38 39 40 40 38 40 45 50 56 57 58 57 57 57
94 89 85 86 82 79 77 76 71 61 59 59 53 51 52 50 42 38 39 39 39 40 39 39 36 35 38 43 45 49 53 54
96 91 87 89 86 82 82 83 79 70 64 61 58 54 56 53 51 46 43 44 42 42 43 44 43 40 39 36 37 39 37 37
98 96 89 88 88 85 88 83 80 74 65 63 62 59 61 61 57 51 48 47 47 44 42 42 41 40 40 39 39 38 38 38
92 92 94 91 93 92 87 86 84 81 73 67 65 65 63 65 66 59 54 53 51 51 53 51 49 45 43 44 44 45 44 45
88 88 91 92 91 94 93 90 88 85 80 75 71 68 67 68 68 66 62 58 56 55 55 56 55 54 54 51 50 49 49 50
84 85 88 92 98 99 97 96 94 90 87 81 76 75 73 71 70 69 69 66 63 59 59 58 58 56 56 57 57 56 56 56
88 91 91 92 99 103 103 98 96 93 90 87 82 79 79 77 75 74 72 70 69 67 65 63 63 62 62 62 63 63 63 63
98 93 88 90 95 100 98 100 99 96 94 90 88 86 83 82 82 78 77 75 72 71 72 71 69 68 68 68 69 69 67 67

GFSFLT2_250_spd_033.txt.gz
Wind_Speed
58 56 50 47 37 43 39 36 37 35 43 50 49 49 43 40 35 30 28 24 24 27 31 34 41 39 36 32 29 26 25 26
64 58 51 43 49 36 32 30 35 36 41 47 45 49 45 42 37 36 31 28 24 30 32 37 43 40 38 35 32 30 30 29
69 57 55 52 41 33 34 32 36 37 42 39 41 46 50 45 44 41 36 32 27 29 32 37 40 40 41 40 38 36 33 30
63 68 66 60 53 48 43 39 38 42 36 32 35 41 49 52 47 44 40 35 29 28 31 34 39 40 40 40 40 37 36 36
76 75 68 59 56 52 51 50 42 44 34 28 30 36 45 53 52 50 45 40 35 31 32 36 39 39 38 39 40 39 39 40
76 67 72 68 61 57 55 53 48 44 42 36 31 34 40 50 53 55 49 46 43 37 35 38 38 40 38 36 35 37 38 39
83 84 76 69 67 62 57 57 54 50 49 47 38 35 35 48 54 58 56 52 48 44 41 41 41 39 39 39 39 38 38 38
90 83 73 68 65 62 61 61 61 56 52 56 49 42 36 38 50 57 62 58 53 48 46 42 43 45 43 42 41 38 40 40
86 83 76 72 68 66 63 62 61 59 60 60 56 52 44 36 37 44 55 59 57 54 51 48 46 44 44 44 42 43 43 41
87 89 81 73 77 76 70 68 66 64 64 61 62 55 45 43 41 41 43 52 61 60 58 55 54 50 51 48 47 47 44 44
92 89 83 81 81 81 76 69 70 70 68 65 61 59 51 47 46 46 44 41 45 56 61 60 59 58 55 53 53 52 52 51
94 91 87 87 90 83 79 75 72 71 68 64 63 58 61 49 43 42 41 41 39 38 40 51 62 64 62 62 60 58 58 55
96 93 90 93 91 87 86 86 79 77 71 66 60 60 57 52 47 46 44 43 41 39 37 40 42 47 55 61 62 62 55 51
99 97 94 95 88 91 93 86 79 75 70 67 60 56 59 56 54 51 47 45 42 42 42 40 38 37 41 45 49 48 52 49
101 97 96 97 90 91 89 85 82 78 75 69 66 63 61 60 59 55 53 48 44 44 44 43 44 44 45 46 44 44 43 42
90 91 92 92 84 87 88 88 85 82 80 78 73 69 66 64 64 64 59 55 51 49 49 49 49 49 48 47 48 47 47 45
84 88 95 94 87 86 86 90 89 88 87 86 80 76 71 69 67 67 65 62 58 55 53 53 54 53 55 55 54 54 53 50
92 89 88 96 94 91 90 94 98 96 92 88 85 81 76 72 70 69 69 68 63 61 59 58 57 56 56 57 58 60 60 58
96 96 87 87 90 88 90 93 96 96 92 90 89 86 82 77 75 73 71 70 69 66 65 63 62 63 61 61 61 63 63 62

GFSFLT2_250_spd_036.txt.gz
Wind_Speed
65 61 58 52 45 49 50 47 44 44 44 48 49 52 50 44 41 36 33 28 25 21 23 30 28 35 39 38 33 33 31 29
71 69 63 54 57 55 46 45 40 43 41 47 45 48 49 50 44 41 39 33 27 24 23 30 32 37 42 41 37 34 30 31
80 68 59 56 54 47 46 42 43 46 45 46 42 43 45 48 48 46 44 38 32 27 24 25 31 37 45 45 41 38 38 36
76 69 68 61 59 53 46 40 41 46 47 38 37 40 45 45 50 51 49 42 38 31 25 23 31 37 45 46 44 42 38 37
83 76 68 62 58 55 55 53 47 48 47 42 37 38 44 48 52 54 53 47 43 35 30 28 32 38 46 49 47 45 41 40
78 69 69 67 66 62 60 52 51 50 48 44 34 33 37 46 53 56 55 49 47 41 37 32 34 37 45 47 45 44 41 41
81 83 82 76 73 68 61 59 53 55 52 47 41 36 37 39 50 57 57 53 50 48 42 37 37 39 43 45 45 45 42 41
85 89 88 79 76 70 68 65 63 61 60 53 51 44 39 37 43 53 57 59 53 49 46 43 41 42 43 44 45 44 43 43
89 90 87 84 75 69 69 70 67 65 62 60 58 54 43 39 36 42 52 56 59 54 52 48 45 45 45 45 44 46 47 46
96 98 97 82 77 74 71 72 69 72 71 66 63 58 48 43 40 35 36 46 55 56 53 49 47 44 47 46 46 47 46 43
103 101 93 84 78 77 75 75 80 77 77 74 61 59 54 55 49 40 35 33 43 51 56 54 50 48 45 44 47 49 48 47
102 101 92 89 88 89 87 83 83 82 77 70 64 60 63 61 46 41 37 34 31 32 41 52 55 53 53 50 51 49 52 51
100 99 99 99 99 97 92 96 88 82 80 75 73 72 61 53 49 49 48 42 41 40 36 38 43 50 53 56 55 57 55 51
101 102 107 103 102 100 98 93 87 82 77 72 69 63 58 54 54 55 53 49 48 45 43 41 37 34 34 39 49 58 57 58
106 104 108 105 107 100 95 92 86 80 77 72 63 59 55 53 63 62 52 51 55 51 47 43 42 39 36 34 32 35 39 46
98 99 107 108 102 96 94 87 81 77 74 73 64 62 64 69 65 63 57 54 54 54 50 49 47 45 44 41 38 36 36 35
89 90 93 93 84 78 83 85 81 79 76 76 72 69 68 68 65 63 66 60 59 56 52 50 50 48 49 48 47 45 44 43
92 92 90 87 79 73 71 78 80 81 83 83 80 76 72 74 69 66 66 66 64 60 56 53 51 49 50 51 49 47 48 49
94 91 87 88 88 79 74 78 85 86 86 88 84 80 78 76 76 72 68 69 67 66 60 57 57 55 54 54 54 53 53 54

GFSFLT2_250_spd_039.txt.gz
Wind_Speed
79 73 69 64 55 55 57 57 56 53 49 47 44 40 41 40 39 38 37 35 30 26 22 18 28 31 26 33 41 37 33 32
80 81 73 60 64 58 55 56 52 53 49 45 37 38 40 41 39 44 43 39 36 29 25 22 27 31 32 34 44 40 38 35
88 78 64 63 60 57 58 58 56 56 50 47 42 39 36 40 43 45 50 43 40 35 28 23 21 32 35 35 45 47 44 40
81 68 67 69 62 62 53 52 53 54 49 45 44 41 38 38 45 45 53 49 45 40 33 27 25 29 35 38 46 48 44 41
88 87 78 66 60 60 59 63 57 55 52 45 42 41 36 40 46 50 54 53 50 45 39 34 30 29 33 35 44 49 46 46
83 76 74 68 64 67 66 60 61 54 54 47 43 42 43 42 43 50 53 55 52 49 44 40 34 30 33 33 39 47 49 47
83 78 77 76 75 72 61 62 59 61 55 49 47 41 42 39 44 47 53 53 54 51 47 42 38 35 34 36 38 46 50 48
87 84 88 83 72 68 67 67 65 65 56 52 52 45 40 41 43 45 51 52 53 52 49 46 42 39 35 39 42 45 50 50
90 92 86 79 73 71 71 71 68 66 60 55 56 52 47 46 42 43 42 49 50 53 50 48 47 44 38 36 40 45 49 49
97 95 87 80 77 74 71 73 71 73 73 65 66 64 49 45 42 40 37 37 44 49 51 48 46 44 40 35 37 44 48 48
99 94 86 87 87 84 81 79 79 83 82 79 73 62 50 47 41 40 34 28 31 39 45 51 47 43 38 35 34 39 46 49
94 91 93 97 91 86 87 86 82 86 89 83 73 63 54 49 48 42 39 35 30 32 41 51 54 51 46 43 41 40 44 47
94 95 97 100 94 90 93 93 88 91 93 79 65 49 47 47 49 48 42 41 37 31 35 44 52 55 52 49 48 48 45 40
95 98 98 99 99 99 96 95 91 93 92 77 60 47 47 50 52 50 47 43 40 37 34 31 36 47 54 55 55 53 50 45
101 105 104 103 105 102 102 99 96 93 91 74 60 52 53 53 55 54 52 52 50 44 40 37 34 36 36 40 51 54 54 54
98 101 101 103 102 103 106 103 98 91 84 71 59 58 60 62 61 57 56 56 55 56 51 45 43 44 45 42 40 42 45 51
101 100 95 97 96 96 98 99 94 85 78 72 66 63 64 63 63 62 66 61 61 59 56 54 51 55 51 47 45 43 41 42
98 95 92 94 93 90 85 85 84 81 77 73 69 68 67 65 68 73 68 60 60 59 57 55 52 58 58 54 51 49 47 46
95 96 91 93 92 92 88 82 82 82 80 78 76 73 73 73 72 69 68 66 64 61 60 58 55 57 59 58 56 55 53 52

GFSFLT2_250_spd_042.txt.gz
Wind_Speed
90 83 83 79 69 68 66 62 59 52 53 55 55 50 43 41 36 39 38 37 34 32 32 25 29 30 25 23 28 37 36 34
88 92 89 75 76 73 66 63 57 57 55 53 53 48 41 35 31 44 44 42 40 39 34 26 25 28 32 29 29 37 39 39
100 94 80 79 76 72 71 67 58 59 56 57 49 46 39 34 34 43 46 48 47 43 37 31 28 24 33 33 32 41 45 44
93 82 82 87 83 80 73 64 59 61 63 57 49 44 40 37 34 39 47 43 50 46 41 37 32 26 34 37 37 39 42 45
94 93 91 86 76 72 69 70 66 66 61 55 51 48 47 43 40 40 46 46 49 50 47 42 36 33 31 40 37 39 42 46
100 96 91 81 74 69 68 68 65 62 66 55 54 53 51 50 45 43 44 50 45 54 51 47 44 38 33 31 36 41 44 46
100 95 88 79 73 70 65 60 60 68 62 56 57 56 52 50 46 44 43 48 47 48 56 54 48 43 37 31 35 39 43 46
91 93 87 83 79 74 66 65 68 70 64 60 58 57 52 51 48 44 43 45 49 46 54 55 51 46 42 36 33 40 42 45
91 95 95 89 88 81 75 76 76 74 70 65 63 60 55 53 46 42 41 42 45 45 47 57 54 51 45 42 36 33 38 42
94 96 94 92 90 82 79 83 82 76 76 75 69 65 57 52 43 41 35 38 42 43 46 53 57 53 48 43 40 37 33 39
96 92 92 94 91 87 85 83 84 82 84 76 70 60 56 51 44 42 39 36 37 37 43 49 56 56 51 45 43 39 36 34
96 95 96 94 93 92 85 84 84 87 86 77 65 62 55 50 45 42 41 37 33 33 36 43 49 54 50 48 44 44 41 39
99 98 94 92 93 95 93 89 88 89 89 75 63 57 53 50 48 44 44 43 38 33 31 34 43 48 53 50 49 49 49 43
98 96 94 94 93 100 93 86 87 90 86 68 59 57 55 52 50 50 49 46 46 41 34 31 37 47 51 55 54 52 47 43
99 95 91 91 94 93 90 87 87 89 84 69 63 61 58 54 54 54 54 50 44 45 43 36 35 41 50 55 58 57 54 50
95 93 89 89 90 92 89 90 90 87 82 74 68 65 62 60 57 57 56 57 54 49 47 45 41 39 39 40 48 55 57 55
95 91 89 90 89 90 88 93 93 89 85 76 70 66 65 63 61 58 60 59 59 57 53 50 49 47 45 42 38 38 37 41
98 98 95 94 92 94 96 89 92 92 87 83 78 73 70 69 67 64 60 64 62 61 60 59 57 54 52 48 44 43 43 42
95 97 97 98 95 96 97 100 92 89 90 89 84 81 78 74 70 69 70 69 68 65 59 59 59 61 60 57 53 52 49 47

GFSFLT2_250_spd_045.txt.gz
Wind_Speed
92 86 84 79 73 74 72 67 60 54 48 55 49 47 45 46 41 36 35 34 34 32 28 30 26 31 31 31 27 31 33 33
97 98 96 84 83 78 69 67 60 56 50 57 50 52 49 46 42 37 37 36 36 38 33 33 29 26 32 34 32 29 32 33
104 104 92 87 80 78 79 74 64 59 54 61 56 54 52 47 43 43 40 39 40 44 38 36 31 27 30 35 36 35 35 32
105 100 97 94 89 86 76 66 63 62 58 68 62 58 52 49 44 45 41 39 38 41 42 39 36 31 31 33 41 39 37 34
110 105 103 99 93 85 78 78 69 63 72 62 62 60 54 50 45 44 45 41 39 39 41 43 42 37 34 33 37 44 39 36
113 110 105 98 95 88 82 78 69 62 74 66 66 62 58 51 46 50 53 47 43 40 44 47 45 43 38 36 34 41 41 41
111 111 104 95 92 88 83 72 68 73 71 69 68 66 59 52 51 52 54 45 40 39 43 45 48 48 45 39 38 35 43 42
105 107 105 100 99 90 82 77 71 75 72 74 69 66 59 55 54 53 55 50 44 40 41 44 48 53 51 47 41 36 36 45
105 105 106 106 100 92 88 83 75 75 77 72 69 66 59 56 56 54 56 52 45 42 44 44 48 55 57 51 45 42 38 33
111 106 105 107 102 96 91 84 78 78 80 74 67 61 56 58 56 53 53 50 44 42 43 44 45 49 58 54 50 44 40 36
113 109 104 105 103 100 92 84 82 82 81 74 68 59 57 57 52 51 51 49 46 45 45 44 44 47 52 56 52 47 43 41
111 111 105 101 101 99 93 88 86 86 84 73 68 61 55 53 51 51 50 49 47 44 43 42 44 45 48 53 55 50 49 48
109 110 103 98 96 96 97 91 90 88 84 73 68 60 56 55 54 52 52 50 50 46 41 41 41 45 49 51 57 59 55 50
108 109 105 99 93 93 91 93 88 88 85 77 69 64 58 57 56 54 53 52 52 49 43 40 40 42 46 51 56 57 55 52
105 106 101 98 91 89 90 91 90 90 87 78 70 66 63 62 59 58 57 57 56 53 47 42 41 39 43 50 55 57 57 56
101 99 99 95 88 84 88 91 91 90 86 79 74 71 68 61 62 62 61 61 59 57 54 49 46 44 41 42 51 54 57 56
96 96 95 92 90 85 85 89 90 88 87 81 77 74 72 67 65 64 63 63 62 59 57 54 50 46 44 44 42 44 51 56
93 93 94 91 90 85 83 82 90 87 85 81 79 77 76 74 69 66 69 65 65 63 60 57 54 53 49 45 45 42 40 43
94 92 92 89 89 87 85 91 85 84 88 83 83 80 80 78 76 74 72 71 67 65 62 60 57 55 55 54 51 47 44 43

GFSFLT2_250_spd_048.txt.gz
Wind_Speed
99 97 94 89 83 77 74 65 57 53 50 51 56 51 51 46 38 32 30 31 27 26 22 19 21 21 25 32 28 30 29 27
106 103 99 91 86 87 77 71 62 56 52 55 57 56 55 48 42 38 34 32 29 27 26 24 23 23 24 30 34 31 30 30
113 109 102 96 93 87 82 77 65 59 53 58 63 60 56 53 46 38 32 32 33 31 30 28 25 27 27 26 34 33 34 32
115 111 109 105 98 92 85 73 69 64 61 66 67 62 59 58 48 42 36 36 34 32 30 31 29 29 30 27 31 35 35 31
121 118 114 112 106 97 85 82 73 66 61 70 70 63 61 57 49 46 39 37 36 33 31 31 31 32 33 31 31 36 35 34
124 122 117 112 109 102 92 82 73 67 70 73 73 66 62 59 50 46 42 41 38 34 36 35 34 35 36 36 32 33 37 37
125 124 119 115 109 104 96 86 77 72 73 75 74 69 64 57 55 53 48 44 41 39 40 42 40 39 40 40 39 36 34 32
125 122 121 117 112 105 98 90 82 79 82 79 77 71 64 59 52 51 52 47 42 41 43 42 44 42 43 44 44 41 36 34
123 123 119 116 112 104 98 92 88 86 88 81 78 73 66 62 56 56 56 49 44 44 46 42 41 44 45 47 48 46 41 36
120 123 119 113 111 106 97 94 91 90 92 86 81 71 65 62 58 56 60 51 48 48 48 46 43 40 41 46 50 51 46 44
119 119 117 115 111 108 101 94 92 94 91 87 82 73 66 60 56 55 60 54 51 50 50 46 47 44 43 45 48 51 52 49
116 117 115 112 107 103 100 97 94 95 93 89 84 75 66 60 56 54 57 55 53 52 50 49 49 47 45 46 50 51 55 56
115 115 110 108 106 101 103 98 95 95 93 90 82 74 69 61 59 54 56 56 56 53 51 50 50 48 45 44 48 51 52 56
114 112 106 102 104 104 98 100 97 94 91 88 81 76 69 63 61 55 55 56 55 53 53 51 49 47 46 45 47 45 48 51
114 115 107 100 103 101 95 96 97 95 91 86 79 75 70 64 62 59 55 57 55 55 55 52 47 47 46 45 44 45 48 52
107 110 105 101 100 97 90 91 95 94 90 87 79 75 71 65 63 63 59 57 58 58 58 53 49 49 49 47 44 44 46 49
97 102 99 96 95 93 87 85 90 93 91 90 81 78 73 71 67 66 64 59 59 60 60 55 53 53 52 49 46 45 45 46
92 94 90 89 88 91 86 82 86 92 93 92 86 81 78 76 72 69 67 65 62 62 62 58 57 56 54 50 48 46 43 41
94 93 89 87 87 88 89 85 84 90 93 93 89 86 83 80 78 72 70 69 64 63 64 60 62 62 58 53 52 49 46 44